Location: Gellin
(53.4498°N, 14.3207°E)
Time: 23:35:33
(UTC+00:00)

Cosmos 1943 Rocket - Pass Details

Date: 03 March 2021
Orbit: 811 x 844 km, 71.0° (Epoch: 12 April)

Event Time Altitude Azimuth Distance (km) Brightness Sun altitude
Rises 18:58:06 0° 325° (NW) 3,416 6.2 -20.5°
Reaches altitude 10° 19:01:05 10° 340° (NNW) 2,479 5.1 -20.9°
Maximum altitude 19:05:35 23° 32° (NNE) 1,717 3.7 -21.5°
Enters shadow 19:06:44 22° 50° (NE) 1,775 3.6 -21.7°
